+ View the NASA Portal
+ Center for Near-Earth Object Studies
IMPORTANT:
The SSD Announcement email list is now available. Major changes are coming in the near future, including possible hostname and/or URL changes. To be notified of such changes, subscribe to this email list.
Please visit
this page
for more details.
Don't show this message again
JPL Small-Body Database Browser
Search:
[
help
]
214267 (2005 GS39)
Classification:
Main-belt Asteroid
SPK-ID:
2214267
[
Ephemeris
|
Orbit Diagram
|
Orbital Elements
|
Mission Design
|
Physical Parameters
|
Discovery Circumstances
|
Close-Approach Data
]
[ show orbit diagram ]
Orbital Elements at Epoch 2458600.5 (2019-Apr-27.0) TDB
Reference:
JPL 12
(heliocentric ecliptic J2000)
Element
Value
Uncertainty (1-sigma)
Units
e
.2262836962157511
1.5255e-07
a
2.53943761421967
2.1494e-08
au
q
1.964804284564734
4.0004e-07
au
i
12.72057857698624
1.5903e-05
deg
node
32.14215000421122
3.5303e-05
deg
peri
204.3771281860788
5.9206e-05
deg
M
150.5575783147125
4.8034e-05
deg
t
p
2457982.334349782090
(2017-Aug-16.83434978)
0.00019092
TDB
period
1478.103172018814
4.05
1.8766e-05
5.138e-08
d
yr
n
.2435553937065889
3.0922e-09
deg/d
Q
3.114070943874605
2.6358e-08
au
Orbit Determination Parameters
# obs. used (total)
336
data-arc span
5819 days (15.93 yr)
first obs. used
2002-10-10
last obs. used
2018-09-15
planetary ephem.
DE431
SB-pert. ephem.
SB431-N16
condition code
0
norm. resid. RMS
.56219
source
ORB
producer
Otto Matic
solution date
2018-Oct-03 12:13:17
Additional Information
Earth MOID
= .961254 au
Jupiter MOID
= 1.91121 au
T_jup
= 3.377
[ show covariance matrix ]
[
Ephemeris
|
Orbit Diagram
|
Orbital Elements
|
Mission Design
|
Physical Parameters
|
Discovery Circumstances
|
Close-Approach Data
]
Physical Parameter Table
Parameter
Symbol
Value
Units
Sigma
Reference
Notes
absolute magnitude
H
16.7
n/a
MPO310502
214267 (2005 GS39)
Discovered 2005-Apr-04 by LINEAR at Socorro
Reference:
20090509/Numbers.arc
Last Updated:
2009-05-11
[ show close-approach data ]
Alternate Designations
2005 GS39
= 2002 TU363
[
Ephemeris
|
Orbit Diagram
|
Orbital Elements
|
Mission Design
|
Physical Parameters
|
Discovery Circumstances
|
Close-Approach Data
]
2019-Dec-08 18:34 UT
(server date/time)
Site Manager:
Ryan S. Park
Webmaster
:
Alan B. Chamberlin